[[{"header":{"parameterUnit":"m.s-1","parameterCategory":1,"la1":30.2991,"la2":30.254,"lo1":-89.0895,"lo2":-89.0444,"dy":0.0017,"dx":0.0017,"nx":28,"ny":28,"refTime":"2024-05-28T21:00:00:Z","depth":0,"parameterNumber":2,"parameterNumberName":"U-component_of_WINDS"},"data":[0,0,0,0,0,0,0,0,0,0,0,0,0,0,0,0,0,0,0,0,0,0,0,0,0,0,0,0,0,0,0,0,0,0,0,0,0,0,0,0,0,0,0,0,0,0,0,0,0,0,0,0,0,0,0,0,0,0,-2.2455,-2.2453,0,-2.2336,-2.2335,-2.2333,-2.2264,-2.2264,-2.2264,-2.2263,-2.214,-2.2137,-2.2134,0,0,0,0,0,0,0,0,0,0,0,0,0,-2.262,-2.2617,-2.2455,-2.2453,-2.2452,-2.2336,-2.2335,-2.2333,-2.2264,-2.2264,-2.2264,-2.2263,-2.2141,-2.2137,-2.2134,0,0,0,0,0,0,0,0,0,0,0,0,0,-2.2529,-2.2616,-2.2455,-2.2404,-2.2398,-2.2337,-2.2335,-2.2333,-2.2264,-2.2264,-2.2264,-2.2263,-2.2142,-2.2138,-2.2133,-2.2113,0,0,-2.2119,-2.2117,0,0,0,0,0,0,0,0,-2.2534,-2.2523,-2.2413,-2.2407,-2.24,-2.2315,-2.2347,-2.2259,-2.2264,-2.2315,-2.2263,-2.2263,-2.2198,-2.2189,-2.2168,-2.2108,-2.2102,-2.2119,-2.2116,-2.2114,-2.2113,0,0,0,0,0,0,0,-2.2541,-2.2528,-2.2408,-2.2411,-2.2404,-2.2386,-2.2373,-2.233,-2.226,-2.2311,-2.2305,-2.2292,-2.2195,-2.2172,-2.2164,-2.21,-2.2119,-2.2115,-2.2112,-2.211,-2.2018,-2.2019,0,0,0,0,0,0,-2.2556,-2.2534,-2.2411,-2.2404,-2.2468,-2.2383,-2.2368,-2.2343,-2.2261,-2.2248,-2.2293,-2.2289,-2.218,-2.217,-2.216,-2.2131,-2.2114,-2.211,-2.2107,-2.2018,-2.2018,-2.2019,0,0,0,0,0,0,-2.2559,-2.2545,-2.2416,-2.2467,-2.245,-2.2381,-2.2352,-2.234,-2.2318,-2.2247,-2.2234,-2.2283,-2.2179,-2.2166,-2.2126,-2.2126,-2.2108,-2.2104,-2.2018,-2.2018,-2.2019,-2.2075,0,0,0,0,0,0,-2.2564,-2.2547,-2.2539,-2.2468,-2.2447,-2.2385,-2.2352,-2.2338,-2.231,-2.2305,-2.2234,-2.2222,-2.2178,-2.2133,-2.2121,-2.212,-2.21,-2.2017,-2.2018,-2.2018,-2.2073,-2.2077,-2.2081,0,0,0,0,0,-2.2571,-2.2559,-2.2539,-2.2525,-2.2436,-2.2385,-2.2373,-2.2324,-2.2311,-2.2302,-2.2257,-2.2224,-2.2128,-2.2129,-2.2115,-2.2113,-2.2017,-2.2018,-2.2018,-2.2071,-2.2076,-2.2081,0,0,0,0,0,0,-2.2632,-2.2549,-2.2526,-2.2491,-2.2446,-2.2374,-2.2361,-2.2331,-2.2288,-2.2284,-2.2223,-2.2208,-2.2174,-2.2139,-2.2142,-2.2089,-2.2069,-2.2067,-2.2113,-2.2118,-2.2122,-2.2132,-2.2096,0,0,0,0,0,-2.2642,-2.2608,-2.2537,-2.2513,-2.2492,-2.2431,-2.2407,-2.2372,-2.2322,-2.2303,-2.2254,-2.2207,-2.2165,-2.214,-2.2098,-2.2067,-2.2051,-2.2058,-2.2062,-2.2066,-2.2065,-2.2047,-2.2049,-2.2021,-2.2021,-2.2021,0,0,-2.2661,-2.2611,-2.2594,-2.2524,-2.2485,-2.2451,-2.2415,-2.238,-2.2354,-2.2297,-2.2256,-2.2219,-2.2162,-2.2127,-2.2108,-2.2096,-2.207,-2.2067,-2.2071,-2.2067,-2.2048,-2.2051,-2.2053,-2.2021,-2.2021,-2.2021,0,0,-2.2679,-2.2638,-2.2614,-2.2576,-2.2517,-2.2477,-2.2471,-2.2403,-2.2377,-2.2335,-2.2292,-2.2259,-2.219,-2.2151,-2.2122,-2.2126,-2.2095,-2.2114,-2.2136,-2.2119,-2.2121,-2.2123,-2.2125,-2.2126,-2.2113,-2.2113,-2.2113,0,-2.271,-2.2658,-2.2606,-2.2574,-2.2545,-2.2492,-2.2467,-2.2432,-2.2363,-2.2344,-2.2331,-2.2243,-2.2201,-2.2156,-2.2157,-2.2135,-2.2127,-2.2122,-2.2125,-2.2126,-2.2127,-2.2128,-2.2129,-2.2116,-2.2116,-2.2116,-2.2115,0,-2.27,-2.2664,-2.2652,-2.2587,-2.2556,-2.2528,-2.2471,-2.2446,-2.2414,-2.2375,-2.2333,-2.2281,-2.2228,-2.2214,-2.2183,-2.2165,-2.2159,-2.2137,-2.2115,-2.2134,-2.2134,-2.2134,-2.212,-2.2119,-2.2118,-2.2118,0,0,-2.2753,-2.2661,-2.2657,-2.2627,-2.2559,-2.253,-2.2499,-2.2448,-2.2428,-2.2382,-2.2355,-2.2297,-2.2276,-2.2244,-2.2207,-2.2192,-2.2199,-2.2171,-2.2168,-2.2178,-2.2177,-2.2195,-2.2196,-2.2177,-2.2177,-2.2177,-2.2182,0,-2.2762,-2.2706,-2.2658,-2.2619,-2.2585,-2.2535,-2.2508,-2.2463,-2.2425,-2.2391,-2.2349,-2.2309,-2.2284,-2.2264,-2.2247,-2.2202,-2.2198,-2.2201,-2.2151,-2.215,-2.2168,-2.2196,-2.2215,-2.2221,-2.2181,-2.2181,-2.2181,0,-2.2765,-2.2722,-2.268,-2.2615,-2.2599,-2.2577,-2.2526,-2.2494,-2.2441,-2.2415,-2.2379,-2.2341,-2.2306,-2.2288,-2.2238,-2.2242,-2.2218,-2.2193,-2.2192,-2.2186,-2.2168,-2.2191,-2.2222,-2.2224,-2.2181,-2.2181,-2.2181,0,-2.2809,-2.2741,-2.2707,-2.2683,-2.2606,-2.2592,-2.2559,-2.2506,-2.2479,-2.2434,-2.2416,-2.2367,-2.2341,-2.2305,-2.2254,-2.2246,-2.2211,-2.2188,-2.2188,-2.2189,-2.2183,-2.2184,-2.2212,-2.2167,-2.2167,-2.2167,-2.2167,0,-2.2825,-2.2801,-2.2726,-2.2705,-2.2677,-2.2622,-2.2596,-2.2558,-2.2512,-2.2483,-2.2435,-2.2409,-2.2344,-2.2309,-2.227,-2.2235,-2.2223,-2.2201,-2.2191,-2.2206,-2.2209,-2.219,-2.2189,-2.2167,-2.2167,-2.2167,-2.2167,0,-2.287,-2.2819,-2.2779,-2.271,-2.2692,-2.2675,-2.2615,-2.2593,-2.2553,-2.2517,-2.2505,-2.2441,-2.2398,-2.2345,-2.2284,-2.2257,-2.2227,-2.2211,-2.2246,-2.224,-2.2243,-2.2244,-2.226,-2.2259,-2.2215,-2.2216,-2.2216,0,-2.2884,-2.2865,-2.2794,-2.2772,-2.2741,-2.2705,-2.2677,-2.2621,-2.2594,-2.2533,-2.2518,-2.2472,-2.2432,-2.2365,-2.2314,-2.2267,-2.225,-2.2259,-2.2243,-2.2259,-2.2251,-2.2253,-2.2251,-2.2263,-2.2264,-2.2265,-2.2265,0,-2.2914,-2.2889,-2.2851,-2.2804,-2.2773,-2.2733,-2.2691,-2.2675,-2.261,-2.2582,-2.2538,-2.2507,-2.2446,-2.24,-2.2347,-2.2312,-2.2278,-2.2271,-2.2268,-2.2284,-2.2305,-2.2294,-2.2258,-2.2271,-2.227,-2.227,-2.227,-2.2269,-2.2944,-2.2925,-2.2873,-2.2832,-2.2794,-2.2756,-2.2732,-2.269,-2.2652,-2.2599,-2.2568,-2.2525,-2.2473,-2.2398,-2.2365,-2.233,-2.2317,-2.2314,-2.2313,-2.2313,-2.2318,-2.231,-2.232,-2.232,-2.2319,-2.2319,-2.2319,0,-2.2972,-2.2936,-2.2899,-2.2842,-2.281,-2.2781,-2.2733,-2.2708,-2.2672,-2.2626,-2.2588,-2.2537,-2.2493,-2.2438,-2.239,-2.2373,-2.2356,-2.2362,-2.2363,-2.2356,-2.2332,-2.2339,-2.2377,-2.2377,-2.2377,-2.2377,-2.2377,-2.2377,-2.2983,-2.295,-2.2919,-2.2867,-2.283,-2.2789,-2.2764,-2.2728,-2.2692,-2.2638,-2.2602,-2.2566,-2.2517,-2.2465,-2.2423,-2.2407,-2.2392,-2.2403,-2.2384,-2.2362,-2.2357,-2.2353,-2.2359,-2.24,-2.24,-2.241,-2.2411,-2.2411]},{"header":{"parameterUnit":"m.s-1","parameterCategory":1,"la1":30.2991,"la2":30.254,"lo1":-89.0895,"lo2":-89.0444,"dy":0.0017,"dx":0.0017,"nx":28,"ny":28,"refTime":"2024-05-28T21:00:00:Z","depth":0,"parameterNumber":3,"parameterNumberName":"V-component_of_WINDS"},"data":[0,0,0,0,0,0,0,0,0,0,0,0,0,0,0,0,0,0,0,0,0,0,0,0,0,0,0,0,0,0,0,0,0,0,0,0,0,0,0,0,0,0,0,0,0,0,0,0,0,0,0,0,0,0,0,0,0,0,-1.1027,-1.1027,0,-1.1041,-1.1041,-1.1041,-1.1028,-1.1027,-1.1027,-1.1026,-1.1039,-1.104,-1.1041,0,0,0,0,0,0,0,0,0,0,0,0,0,-1.0989,-1.099,-1.1027,-1.1028,-1.1028,-1.1041,-1.1041,-1.1041,-1.1028,-1.1027,-1.1027,-1.1026,-1.1039,-1.104,-1.1041,0,0,0,0,0,0,0,0,0,0,0,0,0,-1.1005,-1.099,-1.1027,-1.1023,-1.1022,-1.1041,-1.1041,-1.1041,-1.1028,-1.1027,-1.1026,-1.1026,-1.1039,-1.104,-1.1041,-1.1065,0,0,-1.1045,-1.1046,0,0,0,0,0,0,0,0,-1.1004,-1.1006,-1.1023,-1.1023,-1.1023,-1.1032,-1.1032,-1.1049,-1.1028,-1.1026,-1.1026,-1.1025,-1.1037,-1.1039,-1.1043,-1.1065,-1.1066,-1.1045,-1.1046,-1.1047,-1.1047,0,0,0,0,0,0,0,-1.1003,-1.1005,-1.1033,-1.1023,-1.1023,-1.102,-1.1021,-1.1035,-1.1036,-1.1026,-1.1025,-1.1027,-1.1037,-1.1042,-1.1043,-1.1066,-1.1045,-1.1046,-1.1047,-1.1048,-1.1109,-1.111,0,0,0,0,0,0,-1.1002,-1.1005,-1.1032,-1.1033,-1.1011,-1.1021,-1.1022,-1.103,-1.1036,-1.1036,-1.1028,-1.1026,-1.104,-1.1042,-1.1044,-1.1072,-1.1047,-1.1048,-1.1048,-1.1108,-1.1109,-1.111,0,0,0,0,0,0,-1.1002,-1.1005,-1.1032,-1.1019,-1.1022,-1.1022,-1.1031,-1.103,-1.1035,-1.1037,-1.1037,-1.1032,-1.104,-1.1042,-1.106,-1.1073,-1.1048,-1.1049,-1.1107,-1.1108,-1.1109,-1.1129,0,0,0,0,0,0,-1.1,-1.1005,-1.1014,-1.1019,-1.1022,-1.1048,-1.1031,-1.1031,-1.1037,-1.1036,-1.1041,-1.1041,-1.1039,-1.1058,-1.1061,-1.1074,-1.105,-1.1106,-1.1107,-1.1109,-1.1128,-1.1131,-1.1134,0,0,0,0,0,-1.0999,-1.1019,-1.1014,-1.1018,-1.1034,-1.1049,-1.1051,-1.1048,-1.1038,-1.1048,-1.1049,-1.1041,-1.107,-1.106,-1.1063,-1.1077,-1.1105,-1.1107,-1.1109,-1.1126,-1.1131,-1.1134,0,0,0,0,0,0,-1.1015,-1.1019,-1.1015,-1.1036,-1.1042,-1.1046,-1.1058,-1.1052,-1.1061,-1.1059,-1.1055,-1.1056,-1.1075,-1.1077,-1.1066,-1.11,-1.1086,-1.1089,-1.1098,-1.1102,-1.1106,-1.1105,-1.1051,0,0,0,0,0,-1.1021,-1.1033,-1.1036,-1.1055,-1.1058,-1.1057,-1.1064,-1.1061,-1.1067,-1.1069,-1.1071,-1.1077,-1.1088,-1.1095,-1.1104,-1.1127,-1.1129,-1.1138,-1.1141,-1.1144,-1.1147,-1.116,-1.1164,-1.1116,-1.1116,-1.1116,0,0,-1.1033,-1.1037,-1.1045,-1.1058,-1.1062,-1.1075,-1.106,-1.1073,-1.1082,-1.1071,-1.1089,-1.109,-1.1096,-1.1117,-1.1126,-1.112,-1.116,-1.1147,-1.1149,-1.115,-1.1162,-1.1167,-1.1171,-1.1118,-1.1117,-1.1117,0,0,-1.1063,-1.1067,-1.1083,-1.1088,-1.1095,-1.1094,-1.1098,-1.1103,-1.1104,-1.1121,-1.1113,-1.1124,-1.1142,-1.1147,-1.1152,-1.1183,-1.1177,-1.1186,-1.1204,-1.1216,-1.122,-1.1224,-1.1236,-1.124,-1.1188,-1.1188,-1.1188,0,-1.1078,-1.1097,-1.1092,-1.1107,-1.1113,-1.1103,-1.112,-1.1124,-1.1134,-1.1138,-1.113,-1.1153,-1.1156,-1.1178,-1.1186,-1.119,-1.1195,-1.1186,-1.122,-1.1223,-1.1226,-1.1238,-1.1242,-1.1189,-1.1189,-1.1189,-1.1189,0,-1.1115,-1.1128,-1.114,-1.115,-1.1157,-1.1173,-1.1171,-1.1179,-1.1175,-1.1175,-1.1193,-1.1197,-1.1207,-1.1212,-1.1208,-1.1234,-1.1229,-1.1221,-1.1207,-1.1232,-1.1243,-1.1247,-1.1191,-1.1191,-1.119,-1.119,0,0,-1.1156,-1.1163,-1.1168,-1.1173,-1.1179,-1.1189,-1.1204,-1.1214,-1.1222,-1.1228,-1.1241,-1.1256,-1.1248,-1.1254,-1.125,-1.1261,-1.1287,-1.1251,-1.1251,-1.1259,-1.1316,-1.1324,-1.1329,-1.1282,-1.1283,-1.1283,-1.1316,0,-1.1187,-1.1214,-1.121,-1.1236,-1.1248,-1.1238,-1.1251,-1.1257,-1.1257,-1.1267,-1.1267,-1.1279,-1.1267,-1.127,-1.128,-1.1281,-1.1298,-1.1279,-1.1294,-1.1295,-1.1295,-1.1334,-1.1342,-1.1373,-1.132,-1.1321,-1.1321,0,-1.1227,-1.1236,-1.1262,-1.1267,-1.1272,-1.1284,-1.1294,-1.1303,-1.1309,-1.1308,-1.1314,-1.1309,-1.1324,-1.1309,-1.1329,-1.1316,-1.1322,-1.1323,-1.1324,-1.1327,-1.1311,-1.1339,-1.1383,-1.1388,-1.1327,-1.1327,-1.1327,0,-1.1256,-1.1274,-1.1293,-1.1296,-1.1302,-1.1311,-1.1314,-1.1319,-1.1325,-1.1333,-1.1338,-1.1347,-1.1352,-1.136,-1.1357,-1.1346,-1.1378,-1.1363,-1.1379,-1.1379,-1.1388,-1.1388,-1.1434,-1.1389,-1.1389,-1.1389,-1.1389,0,-1.1292,-1.1309,-1.1306,-1.1318,-1.1336,-1.1332,-1.135,-1.1352,-1.1356,-1.1368,-1.1359,-1.137,-1.1365,-1.1376,-1.1373,-1.1392,-1.1394,-1.1394,-1.1394,-1.1396,-1.1396,-1.1401,-1.1399,-1.139,-1.139,-1.1389,-1.1389,0,-1.1328,-1.1327,-1.1347,-1.135,-1.1352,-1.1366,-1.1369,-1.138,-1.1379,-1.1394,-1.1397,-1.1396,-1.1408,-1.1406,-1.1419,-1.1417,-1.144,-1.1436,-1.1439,-1.1438,-1.1455,-1.1454,-1.1508,-1.1515,-1.1464,-1.1464,-1.1465,0,-1.1352,-1.1365,-1.137,-1.1378,-1.1381,-1.1393,-1.14,-1.1395,-1.1403,-1.141,-1.142,-1.1432,-1.1441,-1.146,-1.1461,-1.1471,-1.1468,-1.1486,-1.147,-1.1472,-1.147,-1.147,-1.1472,-1.149,-1.149,-1.1491,-1.1491,0,-1.1395,-1.1393,-1.1404,-1.1414,-1.1423,-1.143,-1.1437,-1.1443,-1.1439,-1.1448,-1.1461,-1.1468,-1.1481,-1.1493,-1.1502,-1.1504,-1.1498,-1.1496,-1.1501,-1.1504,-1.1506,-1.1506,-1.1449,-1.1495,-1.1495,-1.1495,-1.1494,-1.1494,-1.1427,-1.1438,-1.1444,-1.1456,-1.146,-1.1467,-1.1478,-1.1478,-1.1489,-1.15,-1.1496,-1.1511,-1.1516,-1.1527,-1.1531,-1.1542,-1.1535,-1.1542,-1.1543,-1.1545,-1.1548,-1.1502,-1.1543,-1.1543,-1.1543,-1.1543,-1.1543,0,-1.147,-1.1473,-1.1484,-1.1495,-1.1504,-1.1496,-1.1503,-1.1512,-1.1524,-1.153,-1.1539,-1.1553,-1.1564,-1.1566,-1.1576,-1.1585,-1.1582,-1.1588,-1.1588,-1.1589,-1.1553,-1.1549,-1.159,-1.159,-1.159,-1.159,-1.159,-1.159,-1.1494,-1.1514,-1.1513,-1.1534,-1.1537,-1.1552,-1.1556,-1.1562,-1.1567,-1.1584,-1.1593,-1.1593,-1.1597,-1.1608,-1.1618,-1.1618,-1.1623,-1.163,-1.1629,-1.1596,-1.1591,-1.1587,-1.1583,-1.1631,-1.1631,-1.1664,-1.1664,-1.1665]}]]